Location: Ashton River Estates
(39.1762°N, 77.0261°W)
Time: 23:24:42
(UTC+00:00)

CZ-2C R/B - Pass Details

Date: 29 October 2020
Orbit: 703 x 909 km, 98.1° (Epoch: 03 December)

Event Time Altitude Azimuth Distance (km) Brightness Sun altitude
Rises 22:38:03 0° 126° (SE) 3,522 6.0 -6.1°
Reaches altitude 10° 22:41:03 10° 111° (ESE) 2,573 5.2 -6.7°
Maximum altitude 22:45:12 21° 65° (ENE) 1,883 4.4 -7.4°
Drops below altitude 10° 22:49:17 10° 18° (NNE) 2,521 5.4 -8.2°
Sets 22:52:11 0° 3° (N) 3,431 6.2 -8.8°
